LA5PPA-1 Weather Reports


time (UTC)temp
C
wind
direction
speed
KPH
gust
KPH
rain 1hr
cm
rain 24hr
cm
rain mn
cm
humidity
%
barometer
mb
20260503021702 0 68 0.0 0.0 0.00 0.00 0.00 87 1014.5
20260503021202 0 68 0.0 0.0 0.00 0.00 0.00 87 1014.5
20260503020743 0 68 0.0 0.0 0.00 0.00 0.00 86 1014.5
20260503020702 0 68 0.0 0.0 0.00 0.00 0.00 86 1014.5
20260503020603 0 68 0.0 0.0 0.00 0.00 0.00 86 1014.5
20260503020202 0 68 0.0 0.0 0.00 0.00 0.00 86 1014.6
20260503015702 0 68 0.0 0.0 0.00 0.00 0.00 86 1014.5
20260503015503 0 68 0.0 0.0 0.00 0.00 0.00 86 1014.5
20260503015202 0 68 0.0 0.0 0.00 0.00 0.00 86 1014.5
20260503014702 0 71 0.0 3.2 0.00 0.00 0.00 85 1014.5
20260503014403 1 47 0.0 0.0 0.00 0.00 0.00 85 1014.5
20260503014202 1 47 0.0 0.0 0.00 0.00 0.00 85 1014.5
20260503013702 1 47 0.0 3.2 0.00 0.00 0.00 86 1014.5
20260503013303 1 307 0.0 6.4 0.00 0.00 0.00 87 1014.6
20260503013202 1 323 1.6 6.4 0.00 0.00 0.00 87 1014.5
20260503012702 0 315 6.4 6.4 0.00 0.00 0.00 88 1014.5
20260503012202 0 52 0.0 0.0 0.00 0.00 0.00 86 1014.5
20260503011702 0 52 0.0 0.0 0.00 0.00 0.00 86 1014.5
20260503011202 1 52 0.0 1.6 0.00 0.00 0.00 86 1014.5
20260503011104 1 52 0.0 1.6 0.00 0.00 0.00 86 1014.5
20260503010702 1 98 0.0 1.6 0.00 0.00 0.00 86 1014.5
20260503010202 1 109 1.6 1.6 0.00 0.00 0.00 86 1014.5
20260503010003 1 358 0.0 3.2 0.00 0.00 0.00 86 1014.5
20260503005702 1 320 1.6 3.2 0.00 0.00 0.00 86 1014.4
20260503005202 1 331 0.0 3.2 0.00 0.00 0.00 87 1014.5
20260503004903 1 354 0.0 3.2 0.00 0.00 0.00 87 1014.5
20260503004702 1 334 0.0 1.6 0.00 0.00 0.00 87 1014.5
20260503004202 1 340 0.0 1.6 0.00 0.00 0.00 87 1014.5
20260503003803 1 338 0.0 1.6 0.00 0.00 0.00 87 1014.3
20260503003702 1 338 0.0 3.2 0.00 0.00 0.00 87 1014.4
20260503003202 0 29 0.0 3.2 0.00 0.00 0.00 87 1014.4
20260503002702 0 30 0.0 1.6 0.00 0.00 0.00 86 1014.3
20260503002202 0 5 0.0 1.6 0.00 0.00 0.00 86 1014.4
20260503001702 0 45 0.0 1.6 0.00 0.00 0.00 85 1014.4
20260503001603 1 16 0.0 1.6 0.00 0.00 0.00 85 1014.4
20260503001202 1 60 0.0 0.0 0.00 0.00 0.00 85 1014.4
20260503000702 1 60 0.0 0.0 0.00 0.00 0.00 85 1014.4
20260503000503 1 60 0.0 1.6 0.00 0.00 0.00 85 1014.4
20260503000203 1 78 0.0 1.6 0.00 0.00 0.00 86 1014.4
20260502235702 1 334 0.0 3.2 0.00 0.00 0.00 86 1014.4
20260502235403 1 338 0.0 4.8 0.00 0.00 0.00 86 1014.5
20260502235202 1 313 1.6 4.8 0.00 0.00 0.00 86 1014.5
20260502234702 1 343 0.0 0.0 0.00 0.00 0.00 85 1014.6
20260502234303 1 343 0.0 1.6 0.00 0.00 0.00 86 1014.6
20260502234202 1 343 0.0 1.6 0.00 0.00 0.00 86 1014.7
20260502233702 1 0 0.0 3.2 0.00 0.00 0.00 85 1014.7
20260502233202 1 39 3.2 3.2 0.00 0.00 0.00 85 1014.7
20260502232702 1 18 0.0 0.0 0.00 0.00 0.00 84 1014.7
20260502232202 1 18 0.0 0.0 0.00 0.00 0.00 83 1014.7
20260502232103 1 18 0.0 0.0 0.00 0.00 0.00 83 1014.7
20260502231703 1 18 0.0 0.0 0.00 0.00 0.00 83 1014.7
20260502231202 1 18 0.0 3.2 0.00 0.00 0.00 83 1014.7
20260502231003 2 37 1.6 3.2 0.00 0.00 0.00 83 1014.7
20260502230703 2 334 0.0 3.2 0.00 0.00 0.00 84 1014.7
20260502230202 2 23 0.0 4.8 0.00 0.00 0.00 84 1014.7
20260502225903 2 310 4.8 6.4 0.00 0.00 0.00 84 1014.6
20260502225702 2 327 3.2 6.4 0.00 0.00 0.00 85 1014.6
20260502225202 2 336 0.0 3.2 0.00 0.00 0.00 83 1014.6
20260502224803 2 22 0.0 6.4 0.00 0.00 0.00 84 1014.6
20260502224702 2 348 1.6 6.4 0.00 0.00 0.00 84 1014.6
20260502224202 2 316 6.4 6.4 0.00 0.00 0.00 84 1014.7
20260502223702 2 344 3.2 3.2 0.00 0.00 0.00 83 1014.6
20260502223202 2 316 0.0 3.2 0.00 0.00 0.00 83 1014.6
20260502222702 2 14 1.6 1.6 0.00 0.00 0.00 83 1014.6
20260502222603 2 21 1.6 1.6 0.00 0.00 0.00 82 1014.6
20260502222202 2 331 0.0 1.6 0.00 0.00 0.00 82 1014.6
20260502221702 2 8 0.0 4.8 0.00 0.00 0.00 82 1014.5
20260502221503 2 329 3.2 9.7 0.00 0.00 0.00 82 1014.5
20260502221202 2 345 0.0 9.7 0.00 0.00 0.00 82 1014.5
20260502220403 2 323 4.8 8.0 0.00 0.00 0.00 82 1014.5
20260502220202 2 327 6.4 8.0 0.00 0.00 0.00 82 1014.4
20260502215702 2 310 0.0 9.7 0.00 0.00 0.00 82 1014.4
20260502215305 2 336 1.6 6.4 0.00 0.00 0.00 82 1014.4
20260502215202 2 323 3.2 6.4 0.00 0.00 0.00 82 1014.4
20260502214702 2 330 4.8 6.4 0.00 0.00 0.00 81 1014.3
20260502214202 2 354 3.2 8.0 0.00 0.00 0.00 82 1014.3
20260502213702 2 313 3.2 8.0 0.00 0.00 0.00 82 1014.4
20260502213202 2 334 4.8 8.0 0.00 0.00 0.00 82 1014.4
20260502213103 2 343 3.2 8.0 0.00 0.00 0.00 81 1014.5
20260502212702 2 333 1.6 4.8 0.00 0.00 0.00 81 1014.4
20260502212202 2 323 3.2 6.4 0.00 0.00 0.00 81 1014.5
20260502212004 2 327 0.0 6.4 0.00 0.00 0.00 81 1014.5
20260502211702 2 327 0.0 6.4 0.00 0.00 0.00 80 1014.6
20260502211202 2 324 3.2 6.4 0.00 0.00 0.00 80 1014.6
20260502210904 2 324 4.8 6.4 0.00 0.00 0.00 80 1014.6
20260502210702 2 316 4.8 6.4 0.00 0.00 0.00 81 1014.5
20260502210202 2 330 3.2 9.7 0.00 0.00 0.00 81 1014.5
20260502205804 2 340 3.2 9.7 0.00 0.00 0.00 81 1014.5
20260502205702 2 307 8.0 9.7 0.00 0.00 0.00 81 1014.5
20260502205202 3 347 0.0 6.4 0.00 0.00 0.00 80 1014.4
20260502204702 3 351 1.6 4.8 0.00 0.00 0.00 80 1014.5
20260502204202 3 29 1.6 8.0 0.00 0.00 0.00 80 1014.5
20260502203702 3 337 4.8 9.7 0.00 0.00 0.00 80 1014.5
20260502203604 3 312 4.8 9.7 0.00 0.00 0.00 80 1014.5
20260502203202 3 316 3.2 4.8 0.00 0.00 0.00 79 1014.5
20260502202702 3 28 0.0 0.0 0.00 0.00 0.00 78 1014.5
20260502202504 3 28 0.0 0.0 0.00 0.00 0.00 78 1014.5
20260502202202 3 28 0.0 4.8 0.00 0.00 0.00 78 1014.4
20260502201702 3 0 0.0 3.2 0.00 0.00 0.00 78 1014.5
20260502201404 3 0 0.0 4.8 0.00 0.00 0.00 78 1014.6
20260502201202 3 284 0.0 4.8 0.00 0.00 0.00 78 1014.6
20260502200702 3 322 1.6 4.8 0.00 0.00 0.00 79 1014.6
20260502200304 3 337 3.2 6.4 0.00 0.00 0.00 79 1014.7
20260502200202 3 345 0.0 6.4 0.00 0.00 0.00 79 1014.7
20260502195703 3 309 4.8 11.3 0.00 0.00 0.00 78 1014.6
20260502195203 4 322 0.0 1.6 0.00 0.00 0.00 78 1014.5
20260502194703 4 327 0.0 4.8 0.00 0.00 0.00 78 1014.6
20260502194203 4 331 0.0 3.2 0.00 0.00 0.00 78 1014.6
20260502194104 4 29 0.0 3.2 0.00 0.00 0.00 78 1014.6
20260502193703 4 320 0.0 3.2 0.00 0.00 0.00 78 1014.7
20260502193203 4 317 0.0 9.7 0.00 0.00 0.00 77 1014.6
20260502193004 4 317 0.0 9.7 0.00 0.00 0.00 77 1014.6
20260502192703 4 331 0.0 12.9 0.00 0.00 0.00 78 1014.6
20260502192203 4 327 6.4 8.0 0.00 0.00 0.00 77 1014.4
20260502191904 4 319 6.4 9.7 0.00 0.00 0.00 77 1014.5
20260502191703 4 300 8.0 11.3 0.00 0.00 0.00 77 1014.5
20260502191203 5 299 3.2 14.5 0.00 0.00 0.00 76 1014.4
20260502190804 5 313 9.7 12.9 0.00 0.00 0.00 76 1014.4
20260502190703 5 337 4.8 16.1 0.00 0.00 0.00 76 1014.4
20260502190203 5 320 6.4 22.5 0.00 0.00 0.00 76 1014.4
20260502185703 5 319 9.7 14.5 0.00 0.00 0.00 75 1014.4
20260502185203 5 315 4.8 16.1 0.00 0.00 0.00 75 1014.3
20260502184703 5 303 3.2 12.9 0.00 0.00 0.00 75 1014.1
20260502184604 5 327 3.2 12.9 0.00 0.00 0.00 75 1014.3
20260502184203 5 319 3.2 8.0 0.00 0.00 0.00 75 1014.3
20260502183703 5 288 1.6 9.7 0.00 0.00 0.00 75 1014.1
20260502183504 5 298 3.2 11.3 0.00 0.00 0.00 75 1014.3
20260502183203 5 299 1.6 12.9 0.00 0.00 0.00 74 1014.3
20260502182703 6 274 4.8 11.3 0.00 0.00 0.00 74 1014.1
20260502182404 6 323 3.2 11.3 0.00 0.00 0.00 73 1014.1
20260502182203 6 299 1.6 8.0 0.00 0.00 0.00 73 1014.1
20260502181703 6 313 0.0 9.7 0.00 0.00 0.00 72 1014.0
20260502181304 6 322 4.8 9.7 0.00 0.00 0.00 72 1014.1
20260502181203 6 320 9.7 9.7 0.00 0.00 0.00 72 1014.1
20260502180703 6 313 6.4 6.4 0.00 0.00 0.00 72 1014.3
20260502180203 6 268 0.0 11.3 0.00 0.00 0.00 73 1014.1
20260502170203 6 323 3.2 6.4 0.00 0.00 0.00 71 1014.1
20260502164203 6 292 3.2 9.7 0.00 0.00 0.00 72 1014.4
20260502163703 6 291 6.4 11.3 0.00 0.00 0.00 72 1014.4
20260502163404 7 292 0.0 6.4 0.00 0.00 0.00 72 1014.5
20260502163203 6 292 0.0 8.0 0.00 0.00 0.00 72 1014.5
20260502162703 6 312 1.6 8.0 0.00 0.00 0.00 72 1014.5
20260502162305 6 282 4.8 6.4 0.00 0.00 0.00 73 1014.6
20260502162203 6 278 0.0 6.4 0.00 0.00 0.00 73 1014.6
20260502161703 6 277 0.0 6.4 0.00 0.00 0.00 72 1014.7
20260502161203 6 289 1.6 8.0 0.00 0.00 0.00 72 1014.7
20260502160703 6 272 0.0 8.0 0.00 0.00 0.00 73 1014.7
20260502160203 6 303 4.8 11.3 0.00 0.00 0.00 73 1014.7
20260502160104 6 272 4.8 11.3 0.00 0.00 0.00 72 1014.8
20260502152203 6 315 0.0 1.6 0.00 0.00 0.00 74 1015.2
20260502151703 6 327 0.0 6.4 0.00 0.00 0.00 73 1015.2
20260502151203 6 296 3.2 8.0 0.00 0.00 0.00 73 1015.2
20260502150703 7 291 0.0 11.3 0.00 0.00 0.00 72 1015.3
20260502150604 7 275 6.4 8.0 0.00 0.00 0.00 72 1015.3
20260502150203 7 292 3.2 8.0 0.00 0.00 0.00 71 1015.4
20260502130703 5 319 8.0 11.3 0.00 0.00 0.00 81 1016.1
20260502130504 5 288 4.8 11.3 0.00 0.00 0.00 81 1016.1
20260502130203 5 298 1.6 11.3 0.00 0.00 0.00 80 1016.1
20260502123703 5 317 1.6 8.0 0.00 0.00 0.00 78 1016.4
20260502123203 5 222 1.6 11.3 0.00 0.00 0.00 77 1016.3
20260502122703 5 285 3.2 9.7 0.00 0.00 0.00 76 1016.3
20260502122203 5 326 4.8 9.7 0.00 0.00 0.00 76 1016.3
20260502122104 5 305 3.2 11.3 0.00 0.00 0.00 76 1016.3
20260502121703 5 306 3.2 12.9 0.00 0.00 0.00 74 1016.3
20260502121203 6 351 1.6 12.9 0.00 0.00 0.00 73 1016.2
20260502121005 6 303 6.4 11.3 0.00 0.00 0.00 73 1016.2
20260502120703 6 296 3.2 11.3 0.00 0.00 0.00 73 1016.2
20260502120203 6 305 4.8 12.9 0.00 0.00 0.00 71 1016.2
20260502115904 6 289 6.4 12.9 0.00 0.00 0.00 72 1016.2
20260502115703 6 317 3.2 12.9 0.00 0.00 0.00 72 1016.2
20260502115203 6 329 0.0 8.0 0.00 0.00 0.00 72 1016.3
20260502114804 6 300 4.8 12.9 0.00 0.00 0.00 72 1016.3
20260502114703 6 1 0.0 12.9 0.00 0.00 0.00 72 1016.3
20260502114203 6 302 3.2 11.3 0.00 0.00 0.00 73 1016.4
20260502113703 6 127 1.6 8.0 0.00 0.00 0.00 73 1016.5
20260502113203 6 310 3.2 8.0 0.00 0.00 0.00 72 1016.4
20260502112703 6 324 3.2 9.7 0.00 0.00 0.00 72 1016.6
20260502112604 5 330 6.4 9.7 0.00 0.00 0.00 72 1016.6
20260502112203 6 329 6.4 9.7 0.00 0.00 0.00 71 1016.6
20260502111703 6 313 6.4 12.9 0.00 0.00 0.00 70 1016.5
20260502111505 6 315 6.4 12.9 0.00 0.00 0.00 69 1016.6
20260502111203 6 315 4.8 8.0 0.00 0.00 0.00 69 1016.6
20260502110703 6 305 6.4 11.3 0.00 0.00 0.00 69 1016.5
20260502110404 6 257 1.6 4.8 0.00 0.00 0.00 70 1016.5
20260502110203 6 302 0.0 3.2 0.00 0.00 0.00 70 1016.5
20260502105703 6 298 1.6 4.8 0.00 0.00 0.00 69 1016.5
20260502105306 6 309 0.0 8.0 0.00 0.00 0.00 69 1016.6
20260502105203 6 309 0.0 8.0 0.00 0.00 0.00 69 1016.5
20260502104703 6 295 0.0 8.0 0.00 0.00 0.00 69 1016.6
20260502104203 6 313 0.0 9.7 0.00 0.00 0.00 68 1016.7
20260502103703 6 291 0.0 12.9 0.00 0.00 0.00 67 1016.8
20260502103203 6 300 3.2 12.9 0.00 0.00 0.00 66 1016.9
20260502103105 6 284 0.0 12.9 0.00 0.00 0.00 65 1016.9
20260502102703 6 302 4.8 12.9 0.00 0.00 0.00 63 1016.9
20260502102203 6 272 0.0 11.3 0.00 0.00 0.00 62 1016.8
20260502102005 6 260 3.2 11.3 0.00 0.00 0.00 62 1016.8
20260502101703 6 291 1.6 11.3 0.00 0.00 0.00 62 1016.8
20260502101203 6 285 4.8 17.7 0.00 0.00 0.00 62 1016.7
20260502100905 6 288 9.7 12.9 0.00 0.00 0.00 62 1016.7
20260502100703 6 303 4.8 12.9 0.00 0.00 0.00 62 1016.6
20260502100203 6 323 0.0 8.0 0.00 0.00 0.00 63 1016.7
20260502091405 7 217 1.6 9.7 0.00 0.00 0.00 54 1016.6
20260502091204 7 300 6.4 8.0 0.00 0.00 0.00 53 1016.5
20260502090704 7 291 1.6 9.7 0.00 0.00 0.00 53 1016.5
20260502090305 7 319 0.0 9.7 0.00 0.00 0.00 52 1016.5
20260502090204 7 312 8.0 9.7 0.00 0.00 0.00 52 1016.5
20260502071305 6 246 4.8 9.7 0.00 0.00 0.00 45 1016.9
20260502071204 6 284 0.0 6.4 0.00 0.00 0.00 46 1017.1
20260502070704 6 341 1.6 12.9 0.00 0.00 0.00 44 1017.1
20260502070204 6 282 4.8 9.7 0.00 0.00 0.00 44 1016.9
20260502065704 6 331 0.0 14.5 0.00 0.00 0.00 45 1017.2
20260502065204 6 191 1.6 11.3 0.00 0.00 0.00 45 1017.1
20260502065105 6 305 4.8 9.7 0.00 0.00 0.00 45 1017.1
20260502064704 6 296 0.0 8.0 0.00 0.00 0.00 46 1017.2
20260502064204 6 291 6.4 9.7 0.00 0.00 0.00 47 1017.5
20260502064005 5 315 3.2 11.3 0.00 0.00 0.00 47 1017.4
20260502063704 5 324 1.6 11.3 0.00 0.00 0.00 47 1017.4
20260502063204 5 322 3.2 11.3 0.00 0.00 0.00 47 1017.5
20260502062905 5 298 4.8 12.9 0.00 0.00 0.00 48 1017.4
20260502062704 5 282 8.0 12.9 0.00 0.00 0.00 47 1017.2
20260502062204 5 295 4.8 8.0 0.00 0.00 0.00 48 1017.3
20260502061805 5 286 3.2 6.4 0.00 0.00 0.00 49 1017.4
20260502061704 5 265 1.6 6.4 0.00 0.00 0.00 49 1017.4
20260502061204 5 303 6.4 8.0 0.00 0.00 0.00 49 1017.5
20260502060704 4 258 1.6 8.0 0.00 0.00 0.00 49 1017.5
20260502060204 4 302 4.8 8.0 0.00 0.00 0.00 49 1017.6
20260502055704 4 306 0.0 8.0 0.00 0.00 0.00 49 1017.6
20260502055605 4 313 3.2 8.0 0.00 0.00 0.00 49 1017.5
20260502055204 4 292 4.8 9.7 0.00 0.00 0.00 48 1017.6
20260502054704 4 286 3.2 9.7 0.00 0.00 0.00 49 1017.6
20260502054505 4 306 4.8 6.4 0.00 0.00 0.00 49 1017.7
20260502054204 4 317 0.0 4.8 0.00 0.00 0.00 50 1017.6
20260502053704 4 323 3.2 9.7 0.00 0.00 0.00 49 1017.6
20260502053405 4 288 0.0 11.3 0.00 0.00 0.00 50 1017.7
20260502053204 4 288 0.0 11.3 0.00 0.00 0.00 50 1017.6
20260502052704 3 322 4.8 6.4 0.00 0.00 0.00 51 1017.6
20260502052306 3 303 3.2 9.7 0.00 0.00 0.00 52 1017.7
20260502052204 3 313 1.6 9.7 0.00 0.00 0.00 52 1017.7
20260502051704 3 320 0.0 4.8 0.00 0.00 0.00 53 1017.7
20260502051204 3 319 0.0 4.8 0.00 0.00 0.00 53 1017.7
20260502050704 3 310 0.0 9.7 0.00 0.00 0.00 54 1017.8
20260502050204 3 292 1.6 9.7 0.00 0.00 0.00 54 1017.7
20260502050105 3 281 1.6 9.7 0.00 0.00 0.00 54 1017.8
20260502045704 3 302 3.2 11.3 0.00 0.00 0.00 54 1018.0
20260502045204 2 289 3.2 11.3 0.00 0.00 0.00 55 1017.8
20260502045005 2 267 6.4 11.3 0.00 0.00 0.00 55 1018.0
20260502044704 2 316 6.4 9.7 0.00 0.00 0.00 55 1018.0
20260502044204 2 277 0.0 6.4 0.00 0.00 0.00 56 1017.8
20260502043905 2 274 3.2 9.7 0.00 0.00 0.00 56 1017.8
20260502043704 2 195 3.2 9.7 0.00 0.00 0.00 56 1018.0
20260502043204 2 260 1.6 6.4 0.00 0.00 0.00 56 1018.0
20260502042805 2 291 0.0 6.4 0.00 0.00 0.00 56 1018.0
20260502042704 2 291 0.0 6.4 0.00 0.00 0.00 56 1018.0
20260502042204 2 303 0.0 9.7 0.00 0.00 0.00 56 1018.0
20260502041704 2 288 6.4 6.4 0.00 0.00 0.00 57 1018.0
20260502041204 1 293 3.2 6.4 0.00 0.00 0.00 59 1018.0
20260502040704 1 299 0.0 4.8 0.00 0.00 0.00 61 1017.8
20260502040605 1 302 3.2 4.8 0.00 0.00 0.00 61 1018.0
20260502040204 1 230 0.0 0.0 0.00 0.00 0.00 61 1018.0
20260502035704 1 230 0.0 0.0 0.00 0.00 0.00 61 1018.0
20260502035505 1 230 0.0 0.0 0.00 0.00 0.00 62 1018.1
20260502035204 1 230 0.0 0.0 0.00 0.00 0.00 62 1018.2
20260502034704 1 230 0.0 0.0 0.00 0.00 0.00 61 1018.3
20260502034405 1 230 0.0 0.0 0.00 0.00 0.00 61 1018.2
20260502034204 1 230 0.0 0.0 0.00 0.00 0.00 61 1018.2
20260502033704 1 230 0.0 3.2 0.00 0.00 0.00 60 1018.3
20260502033305 1 336 0.0 0.0 0.00 0.00 0.00 60 1018.3
20260502033204 1 336 0.0 0.0 0.00 0.00 0.00 60 1018.3
20260502032704 2 336 0.0 3.2 0.00 0.00 0.00 60 1018.3
20260502032204 2 286 0.0 0.0 0.00 0.00 0.00 58 1018.3
20260502031704 2 286 0.0 3.2 0.00 0.00 0.00 58 1018.3
20260502031204 2 120 0.0 8.0 0.00 0.00 0.00 57 1018.3
20260502031105 2 120 0.0 12.9 0.00 0.00 0.00 56 1018.4
20260502030704 2 232 8.0 12.9 0.00 0.00 0.00 56 1018.4
20260502030204 2 239 0.0 6.4 0.00 0.00 0.00 57 1018.4
20260502030005 2 239 0.0 8.0 0.00 0.00 0.00 57 1018.4
20260502025704 2 258 0.0 8.0 0.00 0.00 0.00 57 1018.5
20260502025204 2 215 1.6 12.9 0.00 0.00 0.00 56 1018.6
20260502024905 2 281 3.2 8.0 0.00 0.00 0.00 56 1018.5
20260502024704 2 262 3.2 8.0 0.00 0.00 0.00 55 1018.6
20260502024204 3 237 1.6 9.7 0.00 0.00 0.00 55 1018.7
20260502023805 3 299 1.6 11.3 0.00 0.00 0.00 53 1018.6
20260502023704 3 300 3.2 11.3 0.00 0.00 0.00 53 1018.6
20260502023204 3 275 1.6 12.9 0.00 0.00 0.00 52 1018.9
20260502022704 3 289 9.7 19.3 0.00 0.00 0.00 51 1018.7
20260502022204 3 291 14.5 14.5 0.00 0.00 0.00 52 1018.7